Powrót do katalogu

STARLINK-5530

AktywnyŁącznośćVLEO
NORAD 56494·PAYLOAD·🇺🇸 United States

Wystrzelony May 10, 2023 z Vandenberg Space Force Base

Loading…

Następne Przeloty (najbliższe 24 godziny)

TLE

ŚwieżeSource: CelesTrak SupGP

Epoka: Sep 14, 2026, 22:18 UTC

1 56494C 23064AY  26257.92965278 -.00041439  00000+0 -34738-2 0  2579
2 56494  70.0017 347.2914 0003216 272.1421 296.9280 14.98339217    10

Śledź STARLINK-5530 w czasie rzeczywistym z AllMySat

Download on the App Store